Change the Weather History Date:

Wednesday, November 7, 2012

  Actual Average (KALS) Record (KALS)
Temperature  
Mean Temperature 36 °F 34 °F  
Max Temperature 42 °F 52 °F 69 °F (2009)
Min Temperature 30 °F 16 °F -8 °F (1938)
Degree Days  
Heating Degree Days 29 31  
Month to date heating degree days 208  
Since 1 July heating degree days 1318  
Cooling Degree Days 0 0  
Month to date cooling degree days 0  
Year to date cooling degree days 51  
Moisture  
Dew Point 12 °F    
Average Humidity 39    
Maximum Humidity 51    
Minimum Humidity 29    
Precipitation  
Precipitation 0.00 in 0.01 in 0.71 in (1981)
Month to date precipitation 0.12  
Year to date precipitation 6.66  
Snow  
Snow 0.00 in 0.10 in 4.70 in (1981)
Month to date snowfall 0.8  
Since 1 July snowfall 2.9  
Since 1 September snowfall 2.9  
Snow Depth -    
Sea Level Pressure  
Sea Level Pressure 30.44 in    
Wind  
Wind Speed 13 mph (SW)    
Max Wind Speed 21 mph    
Max Gust Speed 31 mph    
Visibility 10 miles    
Events      
T = Trace of Precipitation, MM = Missing Value Source: NWS Daily Summary

Daily Weather History Graph

Daily Weather History Graph

Search for Another Location

Airport or City:

Trip Planner

Search our weather history database for the weather conditions in past years. The results will help you decide how hot, cold, wet, or windy it might be!

Date:

Astronomy

Nov. 07, 2012 Rise Set
Actual Time 6:38 AM MST 5:02 PM MST
Civil Twilight 6:11 AM MST 5:29 PM MST
Nautical Twilight 5:40 AM MST 6:01 PM MST
Astronomical Twilight 5:09 AM MST 6:31 PM MST
Moon No Moon Rise 1:05 PM MST (11/7)
Length of Visible Light 11h 18m
Length of Day
10h 23m
Last Quarter, 42% of the Moon is Illuminated
Nov 7
Last Quarter
Nov 13
New
Nov 20
First Quarter
Nov 28
Full
Dec 6
Last Quarter

Hourly Weather History & Observations

Time (MST) Temp. Windchill Dew Point Humidity Pressure Visibility Wind Dir Wind Speed Gust Speed Precip Events Conditions
12:19 AM 33.8 °F 25.8 °F 10.4 °F 38% 30.54 in 10.0 mi SW 10.4 mph - N/A   Clear
12:39 AM 35.6 °F 28.0 °F 6.8 °F 30% 30.54 in 10.0 mi SW 10.4 mph - N/A   Clear
12:59 AM 35.6 °F 27.1 °F 6.8 °F 30% 30.53 in 10.0 mi SW 12.7 mph - N/A   Clear
1:19 AM 33.8 °F 24.8 °F 6.8 °F 32% 30.53 in 10.0 mi SW 12.7 mph - N/A   Clear
1:59 AM 33.8 °F 23.5 °F 10.4 °F 38% 30.52 in 10.0 mi SW 16.1 mph - N/A   Clear
2:19 AM 33.8 °F 23.9 °F 6.8 °F 32% 30.52 in 10.0 mi SW 15.0 mph - N/A   Clear
2:39 AM 33.8 °F 23.9 °F 12.2 °F 41% 30.51 in 10.0 mi SW 15.0 mph - N/A   Clear
2:59 AM 33.8 °F 23.5 °F 12.2 °F 41% 30.50 in 10.0 mi SW 16.1 mph - N/A   Clear
3:19 AM 32.0 °F 20.8 °F 10.4 °F 41% 30.50 in 10.0 mi SW 17.3 mph - N/A   Clear
3:39 AM 32.0 °F 21.6 °F 12.2 °F 44% 30.50 in 10.0 mi SW 15.0 mph - N/A   Clear
3:59 AM 32.0 °F 21.6 °F 12.2 °F 44% 30.49 in 10.0 mi SW 15.0 mph 19.6 mph N/A   Clear
4:19 AM 32.0 °F 22.1 °F 12.2 °F 44% 30.49 in 10.0 mi SW 13.8 mph - N/A   Clear
4:39 AM 32.0 °F 22.1 °F 12.2 °F 44% 30.49 in 10.0 mi SW 13.8 mph 18.4 mph N/A   Clear
4:59 AM 32.0 °F 22.5 °F 12.2 °F 44% 30.49 in 10.0 mi SW 12.7 mph 19.6 mph N/A   Clear
5:19 AM 32.0 °F 22.1 °F 10.4 °F 41% 30.49 in 10.0 mi SW 13.8 mph 18.4 mph N/A   Clear
5:39 AM 32.0 °F 21.6 °F 10.4 °F 41% 30.49 in 10.0 mi SW 15.0 mph 19.6 mph N/A   Clear
5:59 AM 32.0 °F 22.5 °F 10.4 °F 41% 30.49 in 10.0 mi SSW 12.7 mph - N/A   Clear
6:19 AM 32.0 °F 21.6 °F 10.4 °F 41% 30.49 in 10.0 mi SW 15.0 mph - N/A   Clear
6:39 AM 32.0 °F 22.1 °F 10.4 °F 41% 30.49 in 10.0 mi SW 13.8 mph 18.4 mph N/A   Clear
6:59 AM 32.0 °F 22.1 °F 12.2 °F 44% 30.49 in 10.0 mi SW 13.8 mph - N/A   Clear
7:19 AM 32.0 °F 21.6 °F 12.2 °F 44% 30.49 in 10.0 mi SW 15.0 mph - N/A   Clear
7:39 AM 32.0 °F 21.6 °F 10.4 °F 41% 30.49 in 10.0 mi SW 15.0 mph 19.6 mph N/A   Clear
7:59 AM 33.8 °F 24.3 °F 12.2 °F 41% 30.49 in 10.0 mi SW 13.8 mph - N/A   Clear
8:19 AM 35.6 °F 26.6 °F 12.2 °F 38% 30.49 in 10.0 mi SW 13.8 mph 19.6 mph N/A   Clear
8:39 AM 35.6 °F 27.5 °F 12.2 °F 38% 30.49 in 10.0 mi SSW 11.5 mph - N/A   Clear
9:00 AM 37.4 °F 29.8 °F 10.4 °F 33% 30.49 in 10.0 mi SSW 11.5 mph 18.4 mph N/A   Clear
9:20 AM 39.2 °F 32.5 °F 12.2 °F 33% 30.49 in 10.0 mi SSW 10.4 mph 19.6 mph N/A   Clear
9:39 AM 39.2 °F 34.2 °F 12.2 °F 33% 30.49 in 10.0 mi SSW 6.9 mph 17.3 mph N/A   Clear
10:00 AM 39.2 °F 32.5 °F 12.2 °F 33% 30.49 in 10.0 mi SSW 10.4 mph 20.7 mph N/A   Clear
10:20 AM 41.0 °F 35.2 °F 14.0 °F 33% 30.48 in 10.0 mi SSW 9.2 mph - N/A   Clear
10:40 AM 41.0 °F 37.1 °F 14.0 °F 33% 30.48 in 10.0 mi South 5.8 mph - N/A   Clear
11:00 AM 42.8 °F 38.0 °F 14.0 °F 31% 30.47 in 10.0 mi SSW 8.1 mph 18.4 mph N/A   Clear
11:20 AM 42.8 °F 36.6 °F 14.0 °F 31% 30.46 in 10.0 mi SW 11.5 mph 17.3 mph N/A   Clear
11:40 AM 42.8 °F 36.6 °F 14.0 °F 31% 30.45 in 10.0 mi SSW 11.5 mph 18.4 mph N/A   Clear
11:59 AM 42.8 °F 36.6 °F 14.0 °F 31% 30.44 in 10.0 mi SSW 11.5 mph 19.6 mph N/A   Clear
12:20 PM 42.8 °F 37.0 °F 12.2 °F 29% 30.43 in 10.0 mi SW 10.4 mph 21.9 mph N/A   Clear
12:39 PM 42.8 °F 38.0 °F 12.2 °F 29% 30.42 in 10.0 mi SSW 8.1 mph 20.7 mph N/A   Clear
12:59 PM 42.8 °F 36.2 °F 12.2 °F 29% 30.41 in 7.0 mi SSW 12.7 mph 24.2 mph N/A   Clear
1:20 PM 42.8 °F 36.2 °F 12.2 °F 29% 30.41 in 10.0 mi South 12.7 mph 24.2 mph N/A   Clear
1:40 PM 42.8 °F 35.4 °F 12.2 °F 29% 30.40 in 10.0 mi SSW 15.0 mph 27.6 mph N/A   Clear
2:00 PM 42.8 °F 35.1 °F 14.0 °F 31% 30.40 in 10.0 mi SW 16.1 mph 24.2 mph N/A   Clear
2:20 PM 42.8 °F 36.2 °F 14.0 °F 31% 30.40 in 10.0 mi WSW 12.7 mph 28.8 mph N/A   Clear
2:40 PM 42.8 °F 34.8 °F 12.2 °F 29% 30.39 in 10.0 mi SSW 17.3 mph 31.1 mph N/A   Clear
3:00 PM 42.8 °F 35.4 °F 12.2 °F 29% 30.39 in 10.0 mi SSW 15.0 mph 27.6 mph N/A   Clear
3:20 PM 42.8 °F 35.1 °F 12.2 °F 29% 30.40 in 10.0 mi SSW 16.1 mph 24.2 mph N/A   Clear
3:40 PM 41.0 °F 33.9 °F 12.2 °F 31% 30.40 in 10.0 mi SSW 12.7 mph 29.9 mph N/A   Clear
4:00 PM 39.2 °F 31.6 °F 12.2 °F 33% 30.39 in 10.0 mi SSW 12.7 mph 24.2 mph N/A   Clear
4:20 PM 37.4 °F 28.2 °F 12.2 °F 36% 30.39 in - SW 16.1 mph 24.2 mph N/A   Clear
4:40 PM 37.4 °F 27.8 °F 12.2 °F 36% 30.39 in 10.0 mi SW 17.3 mph 26.5 mph N/A   Clear
5:00 PM 35.6 °F 26.2 °F 14.0 °F 41% 30.39 in 10.0 mi SW 15.0 mph 23.0 mph N/A   Clear
5:20 PM 33.8 °F 23.2 °F 14.0 °F 44% 30.38 in 10.0 mi SW 17.3 mph 25.3 mph N/A   Clear
5:40 PM 33.8 °F 22.8 °F 12.2 °F 41% 30.38 in 10.0 mi SW 18.4 mph 26.5 mph N/A   Clear
6:00 PM 33.8 °F 24.3 °F 12.2 °F 41% 30.39 in 10.0 mi SW 13.8 mph 26.5 mph N/A   Clear
6:20 PM 33.8 °F 22.2 °F 12.2 °F 41% 30.39 in 10.0 mi SW 20.7 mph 29.9 mph N/A   Clear
6:40 PM 32.0 °F 21.6 °F 12.2 °F 44% 30.39 in 10.0 mi SW 15.0 mph 25.3 mph N/A   Clear
7:00 PM 32.0 °F 21.2 °F 12.2 °F 44% 30.39 in 10.0 mi SW 16.1 mph 24.2 mph N/A   Clear
7:20 PM 32.0 °F 20.8 °F 14.0 °F 48% 30.39 in 10.0 mi SW 17.3 mph 23.0 mph N/A   Clear
7:40 PM 32.0 °F 22.1 °F 14.0 °F 48% 30.38 in 10.0 mi SW 13.8 mph - N/A   Clear
8:00 PM 32.0 °F 21.6 °F 14.0 °F 48% 30.38 in 10.0 mi SW 15.0 mph 21.9 mph N/A   Clear
8:20 PM 32.0 °F 23.0 °F 14.0 °F 48% 30.38 in 10.0 mi SW 11.5 mph - N/A   Clear
8:40 PM 32.0 °F 22.1 °F 14.0 °F 48% 30.37 in 10.0 mi SW 13.8 mph 19.6 mph N/A   Clear
9:00 PM 30.2 °F 19.8 °F 14.0 °F 51% 30.37 in 10.0 mi SW 13.8 mph 19.6 mph N/A   Clear
9:20 PM 30.2 °F 19.3 °F 14.0 °F 51% 30.37 in 10.0 mi SW 15.0 mph 21.9 mph N/A   Clear
9:40 PM 30.2 °F 19.8 °F 14.0 °F 51% 30.37 in 10.0 mi SW 13.8 mph - N/A   Clear
10:00 PM 30.2 °F 18.5 °F 12.2 °F 47% 30.36 in 10.0 mi SW 17.3 mph 21.9 mph N/A   Clear
10:20 PM 30.2 °F 19.3 °F 12.2 °F 47% 30.36 in 10.0 mi SW 15.0 mph 21.9 mph N/A   Clear
10:40 PM 30.2 °F 17.4 °F 12.2 °F 47% 30.36 in 10.0 mi SW 20.7 mph 25.3 mph N/A   Clear
11:00 PM 30.2 °F 19.3 °F 12.2 °F 47% 30.35 in 10.0 mi SW 15.0 mph 21.9 mph N/A   Clear
11:20 PM 30.2 °F 18.9 °F 10.4 °F 44% 30.35 in 10.0 mi SW 16.1 mph 19.6 mph N/A   Clear
11:40 PM 32.0 °F 20.5 °F 10.4 °F 41% 30.34 in 10.0 mi SW 18.4 mph 27.6 mph N/A   Clear